KINEIS-4B

Last updated on Sun Apr 12 2026 00:02:47 GMT+0000 (Coordinated Universal Time)

1 63304U 25056E 26100.72952354 .00000031 00000+0 12563-4 0 9994 2 63304 97.9530 226.5701 0005833 121.0217 239.1564 14.72317551 57195
UTC large
Height (km)
Speed (km/s)
/
Latitude / Longitude
Inclination (degrees)
Orbital Period (minutes)
Azimuth
Elevation
Range (km)
Doppler Factor

Next 0 passes for location: London (51.5072 / 0.1276)

Sorry there are no passes over London.
KINEIS-4B